カタログに戻る

ARIANE 5 DEB

SYLDA

運用中GTO
NORAD 26722·DEBRIS·🇫🇷 France

打ち上げ Mar 8, 2001 から Guiana Space Centre

Loading…

TLE

経年Source: Space-Track

元期: Sep 14, 2026, 16:26 UTC

1 26722U 01011D   26257.68490978 -.00000221  00000-0 -45922-2 0  9996
2 26722   1.9134 290.5535 7073186 203.9672  91.1253  2.22968909207916

AllMySatでARIANE 5 DEBをリアルタイム追跡

Download on the App Store